Temperature
19 18 18 18 18 17 17 17 16 16 16 15 15 14 14 13 13 13 12 12 12 11 11 11 11 10 10 9 9 8 8 7 7 7 7 8 8 8 7 7 7 7 7
17 17 17 17 17 16 16 16 16 15 15 15 14 14 14 13 13 12 12 12 11 11 11 10 10 9 9 8 7 7 7 6 5 5 5 5 6 6 6 5 5 5 5
17 16 16 16 15 15 15 15 15 14 14 14 14 13 13 12 12 12 11 11 11 10 10 10 9 8 8 7 6 6 6 5 5 4 3 2 1 1 3 3 4 4 4
16 16 15 14 14 14 14 14 14 13 13 13 13 13 13 12 12 11 11 11 10 10 9 9 8 7 6 6 5 5 4 4 4 3 2 1 0 -0 -1 1 2 3 3
16 15 14 14 13 13 13 13 13 13 13 13 13 13 12 12 11 11 10 10 9 9 8 8 7 6 5 5 4 4 4 3 3 2 2 1 0 -1 -2 -2 -2 -0 1
14 13 13 12 12 12 12 12 12 12 12 12 12 12 12 12 11 10 10 9 9 8 8 7 6 5 5 4 4 3 3 3 2 2 1 0 -1 -2 -2 -3 -3 -3 -3
12 12 12 12 11 11 12 12 12 12 11 11 11 11 11 11 10 10 9 9 8 8 7 6 5 4 4 3 3 3 2 2 2 1 0 -1 -1 -2 -3 -4 -4 -5 -4
11 11 11 11 11 11 11 11 11 11 11 11 11 11 10 10 9 9 8 8 7 7 6 5 4 4 3 3 2 2 2 1 1 0 -1 -1 -2 -3 -3 -4 -5 -6 -5
9 10 11 11 11 11 11 11 11 11 11 11 11 10 9 9 9 8 8 7 7 6 5 4 4 3 3 2 2 1 1 1 0 -1 -1 -2 -3 -3 -3 -4 -5 -7 -7
9 10 10 10 10 10 11 11 11 11 11 10 10 9 9 8 8 7 7 7 6 5 4 4 3 3 2 2 1 1 0 -0 -1 -2 -3 -3 -4 -4 -4 -4 -5 -6 -7
8 9 9 10 10 10 10 10 11 11 10 10 9 9 8 8 7 7 6 6 5 4 3 3 2 2 1 1 0 -0 -1 -1 -2 -3 -4 -4 -5 -5 -5 -5 -6 -7 -7
8 9 9 9 9 10 10 10 10 10 10 9 8 8 7 7 6 6 6 5 4 3 3 2 2 1 1 0 -1 -1 -2 -3 -3 -4 -5 -5 -5 -6 -6 -6 -7 -8 -8
8 9 9 9 9 9 9 10 9 9 9 8 8 7 6 6 6 5 4 4 3 2 2 1 1 0 -0 -1 -1 -2 -3 -3 -4 -5 -5 -6 -6 -6 -7 -8 -8 -8 -8
8 9 9 9 9 9 9 9 9 8 8 7 7 6 6 5 5 4 3 3 2 2 1 1 0 -1 -1 -1 -2 -3 -4 -4 -5 -6 -6 -6 -7 -7 -8 -8 -8 -8 -8
8 9 9 9 9 8 8 8 8 7 7 6 6 5 5 5 4 3 2 2 2 1 0 -0 -1 -1 -1 -2 -3 -4 -5 -5 -6 -6 -7 -7 -8 -8 -8 -8 -8 -9 -8
8 8 9 9 9 8 8 7 7 6 6 5 5 5 4 4 3 2 2 1 1 0 -0 -1 -1 -2 -2 -3 -4 -5 -5 -6 -6 -7 -7 -8 -8 -9 -9 -9 -9 -8 -8
9 9 10 10 9 8 8 7 6 6 5 5 5 4 3 3 2 2 1 1 0 -0 -1 -1 -2 -2 -3 -3 -4 -5 -6 -6 -7 -7 -8 -8 -9 -9 -9 -9 -9 -9 -9
9 9 9 9 9 8 7 7 6 5 5 4 4 3 2 2 1 1 0 -0 -0 -1 -1 -2 -3 -3 -4 -4 -5 -6 -7 -7 -8 -8 -9 -9 -9 -9 -9 -9 -9 -9 -9
10 10 9 9 9 8 7 6 5 5 4 4 3 2 2 1 1 0 -0 -1 -1 -1 -2 -3 -3 -4 -4 -5 -6 -7 -7 -8 -8 -9 -9 -9 -10 -10 -9 -9 -9 -9 -10
10 9 9 9 8 7 6 5 5 4 4 3 2 2 1 1 0 -0 -1 -1 -2 -2 -3 -3 -3 -4 -5 -6 -7 -8 -8 -9 -9 -9 -9 -10 -10 -9 -9 -9 -10 -10 -10
10 10 9 8 8 7 6 5 4 4 3 2 1 1 0 -0 -0 -1 -1 -2 -2 -2 -3 -3 -4 -5 -6 -7 -8 -8 -9 -9 -9 -9 -10 -10 -10 -9 -9 -10 -10 -11 -10
9 9 8 7 6 6 5 4 4 3 2 1 1 0 -0 -1 -1 -1 -2 -2 -3 -3 -3 -4 -4 -5 -6 -7 -8 -9 -9 -9 -9 -10 -10 -10 -10 -10 -10 -11 -11 -11 -11
8 8 8 6 5 4 4 4 3 2 1 1 0 -0 -1 -1 -2 -2 -2 -2 -3 -3 -4 -5 -6 -7 -7 -8 -9 -9 -9 -10 -10 -10 -10 -10 -11 -11 -10 -11 -11 -11 -11
7 7 6 5 4 3 3 2 2 1 1 0 -0 -1 -1 -2 -2 -3 -3 -3 -3 -4 -5 -7 -7 -8 -8 -9 -9 -10 -10 -10 -10 -10 -10 -10 -10 -10 -11 -11 -11 -11 -12
6 6 5 4 3 2 2 1 1 1 0 -0 -1 -1 -2 -2 -2 -3 -3 -4 -4 -6 -7 -8 -9 -9 -9 -9 -10 -10 -10 -10 -10 -11 -11 -10 -11 -11 -11 -11 -11 -11 -11
5 4 4 3 3 2 1 1 0 -0 -0 -1 -1 -2 -2 -3 -3 -3 -3 -4 -5 -6 -7 -8 -8 -9 -9 -10 -10 -10 -10 -10 -11 -11 -11 -12 -12 -12 -12 -12 -12 -11 -11
Wind_Speed
7 7 6 6 6 6 8 9 12 12 13 12 9 9 8 8 9 9 13 15 15 15 11 6 6 6 6 6 7 5 5 5 5 5 5 6 5 4 5 7 6 8 11
7 7 6 5 6 7 9 10 12 11 10 10 8 7 8 8 8 7 11 15 15 13 10 7 6 6 6 7 7 6 4 4 5 4 4 5 6 5 9 6 5 7 7
16 11 8 7 8 9 10 11 12 12 13 13 13 12 9 6 5 7 7 9 13 13 11 9 6 6 6 5 5 5 5 4 4 4 4 4 4 6 5 4 5 6 7
13 12 11 10 10 9 10 13 13 14 13 13 14 14 10 8 5 6 6 7 11 11 11 10 8 5 5 5 5 5 3 3 4 3 2 2 4 4 6 5 6 8 8
17 16 13 12 10 11 12 12 13 13 11 11 12 13 11 9 7 7 8 7 6 9 9 9 7 5 4 5 5 5 4 3 3 3 3 3 3 5 5 9 8 8 7
16 14 11 12 11 11 12 12 14 12 11 12 11 14 14 12 11 8 7 5 4 5 6 7 6 5 4 4 4 4 5 4 4 4 4 3 3 6 6 10 14 11 8
20 18 17 15 14 13 13 13 15 13 12 13 12 12 12 11 10 9 7 6 3 3 4 4 4 3 4 4 4 4 5 5 5 5 4 4 4 5 7 11 15 16 10
19 19 18 16 15 15 14 15 15 14 13 13 12 10 10 8 7 8 6 5 3 2 2 3 4 4 5 5 4 4 4 5 5 7 5 4 5 5 7 9 13 17 12
19 18 16 14 15 15 14 15 16 14 13 13 12 11 10 9 8 7 6 5 3 2 3 3 4 4 5 5 5 4 6 6 5 5 5 5 5 6 7 7 8 11 18
17 17 15 14 12 12 12 12 14 15 13 12 10 10 9 9 8 7 7 5 3 3 3 4 5 5 5 5 6 6 6 6 5 4 6 6 6 7 7 7 8 9 13
20 18 15 13 13 13 13 13 13 14 12 11 11 10 9 8 7 6 5 4 3 3 4 4 5 6 6 7 6 7 7 7 7 6 7 8 8 7 7 8 8 9 11
17 16 16 14 14 14 13 13 12 12 11 11 11 9 8 8 7 6 4 4 3 3 4 5 6 7 7 7 8 8 8 8 8 8 8 8 9 9 9 9 10 11 11
17 14 15 15 15 14 13 12 12 12 11 11 10 9 8 7 6 5 4 3 3 4 5 5 6 7 8 8 8 8 8 8 9 8 8 9 10 11 10 11 12 11 13
18 16 15 14 14 13 13 13 11 11 11 10 10 9 7 6 5 4 3 3 4 5 6 6 7 7 8 8 8 8 9 9 8 8 9 9 10 12 12 13 11 12 14
18 18 17 14 14 13 12 12 12 11 11 10 9 7 7 6 5 3 3 3 4 5 6 6 7 7 8 8 11 9 9 9 9 8 8 10 16 21 18 17 15 16 16
19 18 18 17 17 16 15 14 12 11 10 10 8 7 6 5 4 3 3 4 5 5 6 7 7 8 10 17 21 17 9 8 9 9 9 11 14 19 26 29 28 25 21
20 20 20 19 17 16 16 15 13 11 10 9 8 7 6 4 3 3 4 4 5 5 6 7 7 8 11 19 21 22 13 9 9 10 11 14 16 20 14 22 27 24 28
18 18 16 15 14 14 15 14 13 11 10 9 7 6 5 4 2 3 4 4 4 5 6 7 8 8 11 20 21 23 11 9 9 10 11 12 13 16 21 19 18 16 15
13 13 13 15 16 17 16 15 12 11 10 8 7 6 5 3 2 3 4 4 4 5 6 7 8 8 10 18 21 22 9 9 10 10 10 14 14 25 31 22 19 17 14
13 15 16 17 17 15 16 15 13 10 9 8 7 5 4 2 1 3 4 3 4 6 7 7 7 8 9 16 21 22 8 10 11 9 10 18 23 29 31 20 15 17 18
17 17 18 16 16 15 15 14 12 9 8 8 6 5 3 1 2 3 3 5 6 7 7 8 8 8 10 16 20 22 11 11 12 13 11 12 28 30 30 25 14 21 22
17 17 17 15 12 13 15 13 10 9 8 7 6 4 2 2 2 4 5 5 6 7 7 7 8 6 8 13 18 23 21 20 13 13 12 16 29 29 27 21 22 27 22
15 14 17 15 11 10 12 13 9 9 8 7 5 3 2 2 3 4 5 5 5 5 6 6 7 7 6 10 20 22 24 24 15 13 22 26 27 24 18 22 26 21 13
14 15 16 15 10 9 9 10 9 8 8 6 4 2 2 3 4 4 4 4 5 6 7 8 8 9 8 7 8 9 11 17 16 13 17 22 22 19 19 19 16 13 13
11 12 13 13 11 10 9 9 8 8 7 5 3 1 1 3 4 4 4 5 4 7 9 6 7 10 10 14 24 19 13 13 14 16 9 10 12 13 13 13 13 13 13
11 11 11 12 10 10 9 8 7 7 7 4 1 1 2 3 3 4 5 8 10 14 15 16 16 13 18 25 26 26 26 25 24 17 11 12 13 14 14 15 15 14 14
Wind_Direction
201 177 158 134 119 119 124 126 126 128 127 124 118 111 102 97 87 81 79 78 75 71 67 62 49 45 49 37 24 9 2 354 348 341 321 316 331 355 345 352 355 6 5
178 178 154 133 129 128 124 124 127 125 123 120 113 111 111 99 91 83 74 72 71 68 68 62 57 47 45 34 27 22 7 351 6 351 332 337 333 344 335 323 349 358 347
181 174 155 141 131 129 129 127 123 120 119 118 115 113 104 94 83 78 72 66 71 69 67 63 60 50 47 33 21 24 24 352 340 6 40 1 318 313 299 315 336 333 322
172 163 153 144 137 131 123 122 122 122 122 123 127 129 127 121 112 106 92 73 68 67 64 60 57 47 39 28 9 22 8 359 346 340 26 253 256 293 309 307 307 309 312
168 161 154 144 134 128 122 121 119 117 115 115 120 118 114 114 112 104 94 79 63 61 60 57 50 36 25 17 9 0 356 347 331 322 312 298 270 242 271 298 306 306 297
156 146 136 131 126 122 120 121 118 113 112 111 112 119 122 124 120 113 108 91 72 52 46 50 40 27 13 0 353 349 347 337 329 319 311 312 307 309 296 301 308 305 296
154 150 146 143 139 132 126 123 121 117 114 111 109 115 120 121 124 124 118 110 89 63 37 37 27 11 353 349 350 345 337 331 330 316 306 301 293 297 304 309 310 307 301
156 154 152 147 143 137 131 127 124 121 117 114 111 109 110 111 113 114 115 111 110 103 57 37 21 5 355 352 347 335 325 329 321 323 317 307 302 301 303 306 311 312 306
155 153 149 146 143 138 135 132 129 124 120 118 114 109 108 110 112 110 104 103 100 94 57 31 12 356 349 342 339 323 314 316 312 309 308 307 301 299 296 296 299 304 308
152 151 150 146 140 134 129 125 127 127 124 120 119 118 112 112 113 108 104 102 87 62 37 15 0 347 339 331 325 313 306 310 308 304 306 305 303 302 297 294 293 288 293
157 155 151 144 136 132 131 129 128 127 124 119 116 116 114 113 109 106 106 101 76 45 20 359 345 334 324 318 312 305 305 305 299 299 306 298 300 302 302 297 293 290 289
154 152 149 144 142 141 139 136 134 131 128 125 120 118 116 113 108 106 99 85 57 23 359 343 332 321 316 310 305 304 310 298 292 290 290 293 307 304 302 299 295 293 288
150 149 151 152 151 148 145 141 137 133 129 125 121 118 117 115 113 107 89 63 33 1 344 335 323 315 311 308 302 297 292 287 284 282 284 291 299 304 303 300 297 296 298
157 157 157 156 153 151 147 142 136 134 132 126 123 124 125 123 120 106 74 37 10 347 335 327 319 314 311 304 298 295 292 288 283 279 280 286 293 298 302 304 298 303 304
164 165 163 158 153 148 144 141 137 135 133 128 126 128 128 122 112 88 45 12 355 344 333 327 321 319 316 314 318 310 304 301 296 291 286 290 306 312 312 310 311 308 304
171 169 165 161 159 155 149 143 138 136 132 129 129 130 126 119 104 66 24 3 349 338 334 325 318 318 328 328 330 330 318 310 309 308 304 303 307 309 315 313 309 308 308
174 173 171 167 161 155 149 144 141 135 130 130 131 131 127 117 89 44 16 352 336 328 322 315 312 309 315 333 334 332 334 326 315 309 308 313 315 316 302 302 308 307 305
174 171 164 154 146 141 140 135 135 134 132 131 133 131 125 110 71 27 354 327 313 314 307 304 306 308 320 335 334 333 337 316 305 300 298 299 302 307 311 309 310 305 303
158 150 144 139 138 140 139 134 132 131 131 135 136 133 126 108 46 353 324 309 306 306 299 299 304 309 316 331 332 332 315 308 302 296 298 308 308 309 315 318 314 313 310
129 130 131 132 135 138 136 134 136 136 139 140 137 131 121 101 0 317 304 298 299 294 300 303 305 305 303 321 330 328 310 311 311 305 300 313 316 316 320 322 320 318 313
123 127 130 134 137 137 133 133 136 140 138 132 128 120 104 57 319 313 302 303 303 305 307 305 305 301 308 324 329 328 327 317 318 319 318 314 318 321 325 327 321 313 320
120 125 125 125 127 131 131 132 135 133 127 125 120 108 75 5 352 332 314 310 311 312 313 311 310 300 305 322 326 329 329 328 322 319 316 316 322 327 328 326 320 323 328
118 121 123 121 117 122 130 133 135 132 125 119 112 94 41 359 341 321 315 316 318 317 315 314 317 318 313 318 326 327 329 330 327 316 319 324 327 329 326 321 324 328 323
118 122 122 123 120 115 117 126 132 128 122 119 110 80 16 334 326 317 312 315 316 316 319 326 326 322 318 312 312 316 322 327 324 319 323 327 326 325 323 324 323 321 317
116 121 126 128 126 121 117 122 126 122 118 116 106 57 329 311 312 316 313 320 299 317 329 323 318 325 324 323 330 333 327 329 325 331 327 325 325 326 325 323 322 322 321
120 119 121 125 125 124 123 124 123 121 121 121 127 272 293 300 308 317 320 333 338 335 335 334 331 325 323 326 330 331 331 334 335 335 327 324 324 322 322 322 321 321 320
Height
1457 1459 1461 1462 1463 1465 1466 1468 1471 1474 1477 1480 1484 1487 1491 1493 1496 1497 1498 1499 1500 1500 1500 1499 1498 1496 1493 1490 1487 1485 1481 1477 1473 1469 1465 1463 1462 1459 1458 1457 1455 1452 1449
1453 1455 1456 1458 1460 1461 1463 1465 1468 1471 1475 1478 1482 1486 1489 1492 1495 1496 1497 1499 1499 1499 1499 1498 1496 1493 1491 1488 1485 1482 1479 1475 1471 1467 1461 1458 1455 1455 1454 1451 1448 1446 1443
1447 1449 1452 1454 1457 1459 1461 1463 1466 1469 1473 1477 1481 1485 1488 1491 1494 1495 1497 1498 1498 1498 1497 1496 1494 1491 1489 1486 1483 1480 1476 1473 1470 1467 1465 1460 1455 1449 1444 1443 1441 1438 1435
1441 1444 1447 1451 1454 1456 1459 1462 1465 1469 1473 1477 1480 1483 1486 1489 1492 1494 1496 1497 1497 1496 1495 1493 1491 1489 1486 1484 1481 1478 1475 1472 1468 1466 1463 1462 1458 1452 1442 1436 1434 1431 1428
1434 1439 1444 1448 1451 1454 1458 1461 1465 1469 1473 1477 1480 1483 1486 1489 1491 1493 1495 1495 1495 1494 1493 1491 1489 1487 1484 1482 1479 1476 1473 1470 1466 1463 1460 1457 1454 1450 1444 1432 1425 1423 1421
1429 1435 1441 1446 1450 1453 1457 1461 1465 1469 1473 1476 1480 1483 1486 1488 1490 1492 1493 1494 1493 1492 1491 1489 1487 1485 1482 1480 1477 1474 1470 1467 1464 1460 1456 1453 1449 1445 1439 1430 1421 1415 1412
1424 1431 1437 1442 1447 1451 1455 1460 1464 1468 1472 1476 1480 1483 1486 1488 1490 1491 1492 1492 1491 1490 1489 1487 1485 1482 1480 1477 1474 1471 1467 1463 1460 1456 1452 1449 1446 1441 1436 1427 1417 1408 1403
1419 1426 1433 1439 1444 1448 1453 1458 1463 1467 1472 1476 1480 1483 1486 1488 1489 1490 1490 1490 1489 1488 1486 1484 1482 1480 1477 1474 1470 1467 1463 1459 1456 1452 1448 1444 1440 1436 1431 1424 1415 1403 1393
1417 1424 1431 1437 1442 1447 1453 1458 1463 1467 1472 1476 1479 1482 1485 1487 1488 1488 1488 1488 1487 1485 1484 1482 1480 1477 1474 1470 1466 1463 1459 1455 1451 1447 1442 1438 1433 1429 1424 1419 1414 1407 1392
1416 1424 1430 1437 1442 1448 1453 1459 1463 1467 1471 1475 1479 1482 1484 1485 1486 1486 1486 1485 1484 1483 1481 1479 1477 1474 1470 1466 1462 1458 1454 1450 1446 1441 1436 1432 1427 1422 1417 1412 1408 1403 1395
1414 1422 1430 1437 1442 1448 1453 1458 1463 1467 1471 1474 1478 1480 1482 1484 1484 1484 1484 1483 1482 1480 1478 1476 1473 1470 1466 1462 1458 1454 1449 1445 1440 1436 1431 1426 1420 1415 1410 1405 1400 1395 1390
1415 1422 1429 1436 1441 1447 1452 1457 1462 1466 1470 1473 1477 1479 1481 1482 1482 1482 1481 1480 1479 1477 1475 1473 1470 1466 1462 1458 1453 1448 1444 1439 1434 1430 1425 1420 1414 1409 1404 1398 1392 1387 1383
1416 1423 1429 1434 1440 1445 1451 1456 1461 1465 1469 1472 1475 1477 1479 1480 1480 1480 1479 1478 1477 1475 1472 1469 1466 1461 1457 1453 1448 1443 1438 1434 1429 1425 1420 1414 1409 1402 1397 1391 1386 1380 1375
1415 1421 1427 1433 1439 1444 1450 1455 1460 1464 1468 1471 1474 1476 1477 1478 1478 1477 1477 1475 1474 1472 1469 1465 1461 1457 1452 1447 1442 1438 1433 1429 1424 1420 1415 1409 1404 1397 1391 1385 1380 1374 1367
1414 1419 1425 1431 1437 1443 1448 1454 1458 1463 1466 1470 1472 1474 1475 1476 1476 1475 1474 1473 1471 1468 1465 1461 1457 1452 1447 1442 1437 1433 1428 1423 1418 1414 1409 1404 1398 1393 1387 1382 1374 1368 1360
1411 1417 1422 1428 1434 1440 1446 1451 1457 1461 1466 1469 1471 1473 1473 1474 1473 1473 1472 1470 1468 1465 1461 1457 1452 1448 1443 1438 1433 1428 1423 1417 1412 1407 1402 1397 1391 1386 1380 1375 1368 1363 1355
1407 1412 1418 1424 1431 1437 1443 1449 1455 1460 1465 1468 1470 1471 1471 1471 1471 1470 1469 1467 1464 1461 1457 1453 1448 1443 1438 1433 1428 1423 1418 1412 1407 1401 1396 1390 1384 1379 1371 1365 1360 1354 1349
1404 1410 1416 1423 1430 1437 1444 1450 1455 1460 1463 1466 1468 1469 1469 1469 1469 1468 1466 1463 1460 1457 1453 1448 1443 1438 1433 1428 1423 1417 1411 1406 1401 1396 1391 1384 1377 1371 1365 1358 1351 1345 1339
1402 1409 1415 1422 1429 1436 1443 1449 1454 1458 1462 1464 1466 1467 1467 1467 1466 1465 1463 1460 1457 1453 1449 1444 1439 1433 1428 1423 1417 1412 1405 1400 1395 1390 1385 1380 1372 1365 1360 1352 1344 1336 1329
1404 1410 1416 1423 1430 1437 1443 1448 1453 1457 1460 1462 1464 1465 1465 1465 1464 1462 1459 1456 1453 1449 1444 1440 1435 1429 1423 1418 1413 1408 1402 1395 1388 1383 1378 1373 1367 1360 1353 1346 1338 1329 1321
1404 1410 1417 1424 1430 1437 1443 1448 1453 1456 1459 1460 1462 1463 1463 1462 1461 1459 1456 1452 1448 1444 1439 1434 1430 1424 1419 1413 1408 1404 1399 1392 1385 1378 1371 1365 1360 1354 1347 1340 1332 1325 1318
1405 1411 1418 1425 1432 1438 1443 1448 1452 1455 1457 1459 1460 1461 1461 1459 1458 1455 1452 1448 1444 1439 1433 1428 1423 1419 1414 1409 1404 1400 1395 1390 1382 1374 1367 1360 1354 1347 1340 1333 1327 1321 1313
1408 1415 1421 1427 1434 1440 1444 1448 1451 1453 1455 1457 1458 1458 1458 1457 1454 1451 1448 1444 1439 1433 1428 1422 1417 1412 1408 1404 1399 1395 1390 1384 1377 1370 1363 1356 1348 1341 1333 1327 1322 1315 1307
1412 1418 1423 1429 1435 1440 1445 1448 1450 1452 1454 1456 1456 1456 1455 1454 1451 1448 1444 1439 1434 1429 1423 1418 1413 1408 1403 1398 1394 1389 1383 1377 1371 1364 1356 1350 1342 1336 1329 1323 1316 1310 1304
1416 1422 1426 1431 1436 1440 1444 1447 1449 1451 1453 1454 1454 1454 1453 1450 1448 1444 1440 1435 1431 1426 1421 1416 1411 1405 1398 1394 1391 1385 1378 1372 1366 1359 1351 1343 1337 1330 1324 1318 1312 1306 1300
1419 1424 1429 1433 1437 1441 1444 1447 1449 1451 1452 1452 1452 1451 1449 1447 1443 1440 1437 1432 1428 1423 1419 1414 1409 1403 1398 1392 1386 1380 1374 1368 1361 1354 1347 1340 1334 1328 1321 1315 1308 1302 1296